FW4335 Weather Reports


Display with metric or nautical units.
time (UTC)temp
F
wind
direction
speed
MPH
gust
MPH
rain 1hr
in
rain 24hr
in
rain mn
in
humidity
%
barometer
mb
20260507040035 61 252 1.0 7.0 0.00 0.00 0.00 63 1021.1
20260507034531 62 245 1.0 7.0 0.00 0.00 0.00 61 1021.0
20260507033031 63 206 2.0 6.0 0.00 0.00 0.00 58 1020.8
20260507031535 65 195 0.0 6.0 0.00 0.00 0.00 54 1020.7
20260507030038 66 198 4.0 10.0 0.00 0.00 0.00 52 1020.6
20260507023143 68 205 8.0 13.0 0.00 0.00 0.00 48 1020.4
20260507021532 69 214 6.0 11.0 0.00 0.00 0.00 46 1020.3
20260507020036 70 233 6.0 12.0 0.00 0.00 0.00 46 1020.2
20260507014534 71 252 5.0 13.0 0.00 0.00 0.00 46 1020.1
20260507011530 72 281 2.0 7.0 0.00 0.00 0.00 47 1020.0
20260507010031 71 304 1.0 6.0 0.00 0.00 0.00 49 1020.0
20260507004531 70 316 2.0 7.0 0.00 0.00 0.00 48 1020.0
20260507003033 71 306 2.0 7.0 0.00 0.00 0.00 48 1019.8
20260507001609 70 317 2.0 10.0 0.00 0.00 0.00 50 1019.8
20260506234542 69 310 1.0 5.0 0.00 0.00 0.00 52 1019.7
20260506233037 69 320 2.0 9.0 0.00 0.00 0.00 52 1019.7
20260506231536 69 307 2.0 7.0 0.00 0.00 0.00 52 1019.7
20260506230039 69 323 2.0 9.0 0.00 0.00 0.00 53 1019.7
20260506224530 70 340 3.0 8.0 0.00 0.00 0.00 51 1019.7
20260506223037 73 334 3.0 10.0 0.00 0.00 0.00 49 1019.6
20260506221534 74 334 3.0 12.0 0.00 0.00 0.00 48 1019.6
20260506220036 74 328 3.0 12.0 0.00 0.00 0.00 49 1019.7
20260506213030 73 331 2.0 10.0 0.00 0.00 0.00 50 1019.7
20260506211535 74 331 3.0 12.0 0.00 0.00 0.00 50 1019.6
20260506210034 75 338 2.0 7.0 0.00 0.00 0.00 49 1019.6
20260506204539 73 326 3.0 9.0 0.00 0.00 0.00 51 1019.9
20260506203142 72 318 2.0 10.0 0.00 0.00 0.00 53 1020.0
20260506200028 72 330 1.0 5.0 0.00 0.00 0.00 54 1020.0
20260506194537 72 332 3.0 9.0 0.00 0.00 0.00 55 1020.1
20260506193029 72 333 3.0 8.0 0.00 0.00 0.00 56 1020.2
20260506190038 70 338 3.0 6.0 0.00 0.00 0.00 60 1020.4
20260506184532 69 340 3.0 11.0 0.00 0.00 0.00 61 1020.4
20260506181530 70 342 3.0 9.0 0.00 0.00 0.00 60 1020.2
20260506180036 69 331 3.0 11.0 0.00 0.00 0.00 62 1020.5
20260506173029 68 328 2.0 9.0 0.00 0.00 0.00 64 1020.4
20260506171536 69 335 3.0 7.0 0.00 0.00 0.00 62 1020.3
20260506170030 71 290 3.0 10.0 0.00 0.00 0.00 56 1020.3
20260506164530 71 235 6.0 10.0 0.00 0.00 0.00 58 1020.3
20260506163141 68 347 0.0 4.0 0.00 0.00 0.00 65 1020.5
20260506161531 67 319 2.0 8.0 0.00 0.00 0.00 67 1020.8
20260506160118 68 331 2.0 8.0 0.00 0.00 0.00 68 1020.7
20260506154535 67 327 0.0 4.0 0.00 0.00 0.00 72 1020.6
20260506151533 62 14 0.0 3.0 0.00 0.00 0.00 85 1020.6
20260506150028 59 333 0.0 3.0 0.00 0.00 0.00 92 1020.7
20260506144530 56 226 0.0 0.0 0.00 0.00 0.00 95 1020.8
20260506143034 55 202 0.0 4.0 0.00 0.00 0.00 97 1020.9
20260506141530 52 202 0.0 3.0 0.00 0.00 0.00 98 1020.8
20260506140106 48 172 0.0 4.0 0.00 0.00 0.00 98 1020.6
20260506134536 46 192 0.0 5.0 0.00 0.00 0.00 98 1020.4
20260506133032 45 187 0.0 2.0 0.00 0.00 0.00 98 1020.3
20260506131532 45 223 0.0 5.0 0.00 0.00 0.00 97 1020.2
20260506130033 44 227 0.0 4.0 0.00 0.00 0.00 97 1020.2
20260506124533 45 217 0.0 5.0 0.00 0.00 0.00 97 1020.1
20260506123031 45 203 0.0 4.0 0.00 0.00 0.00 97 1019.9
20260506120107 45 212 0.0 5.0 0.00 0.00 0.00 97 1019.7
20260506113143 45 206 0.0 4.0 0.00 0.00 0.00 96 1019.4
20260506111532 46 247 0.0 2.0 0.00 0.00 0.00 96 1019.3
20260506110106 46 223 1.0 3.0 0.00 0.00 0.00 96 1019.1
20260506104534 46 191 0.0 3.0 0.00 0.00 0.00 96 1019.0
20260506103031 46 205 1.0 2.0 0.00 0.00 0.00 96 1018.9
20260506100051 47 225 0.0 3.0 0.00 0.00 0.00 95 1018.9
20260506094535 47 202 0.0 3.0 0.00 0.00 0.00 95 1018.8
20260506093035 47 173 1.0 3.0 0.00 0.00 0.00 95 1018.7
20260506090035 48 225 1.0 2.0 0.00 0.00 0.00 94 1018.7
20260506083034 48 225 0.0 3.0 0.00 0.00 0.00 94 1018.4
20260506081530 48 202 0.0 2.0 0.00 0.00 0.00 93 1018.3
20260506073038 50 202 0.0 0.0 0.00 0.00 0.00 90 1018.0
20260506061536 52 202 0.0 2.0 0.00 0.00 0.00 88 1017.6
20260506050108 55 225 0.0 3.0 0.00 0.00 0.00 80 1016.9
20260506044535 56 220 0.0 4.0 0.00 0.00 0.00 78 1016.8
20260506043029 58 183 1.0 4.0 0.00 0.00 0.00 76 1016.7
20260506041533 59 169 1.0 5.0 0.00 0.00 0.00 75 1016.5